Regional Weather Roundup
Issued by NWS

Home | Current Version | Previous Version | Graphics & Text | Print | Product List | Glossary Off
Versions: 1 2 3 4 5 6 7 8 9 10 11 12 13 14 15 16 17 18 19 20 21 22 23 24 25 26 27 28 29 30 31 32 33 34 35 36 37 38 39 40 41 42 43 44 45 46 47 48 49 50

000
ASUS43 KDTX 032310
RWRMI
MICHIGAN HOURLY REGIONAL WEATHER ROUNDUP
NATIONAL WEATHER SERVICE DETROIT/PONTIAC MI
700 PM EDT SUN MAY 03 2015

NOTE: "FAIR" INDICATES FEW OR NO CLOUDS BELOW 12,000 FEET WITH NO
SIGNIFICANT WEATHER AND/OR OBSTRUCTION TO VISIBILITY.

MIZ047>049-052>055-059>063-066>070-074>076-081>083-040000-
SOUTHEAST LOWER MICHIGAN

CITY           SKY/WX    TMP DP  RH WIND       PRES   REMARKS
ADRIAN         PTSUNNY   76  45  33 W10       30.01S
ALMA           PTSUNNY   76  44  31 SW12      29.95S
ANN ARBOR      MOSUNNY   77  44  30 SW12      30.00S
BAD AXE        CLOUDY    76  38  24 SW12      29.95F
CARO           PTSUNNY   75  44  32 CALM      29.95S
DETROIT CITY   PTSUNNY   75  44  33 S10       29.99S
DETROIT        CLOUDY    79  43  27 SW14      30.00S
FLINT          PTSUNNY   78  42  27 SW10      29.97S
GROSSE ILE     PTSUNNY   66  50  55 S10       29.99S
HILLSDALE      PTSUNNY   75  43  31 SW9       30.01S
HOWELL         CLOUDY    76  42  29 SW9       29.98S

CITY           SKY/WX    TMP DP  RH WIND       PRES   REMARKS
JACKSON        PTSUNNY   76  46  34 SW14      29.99S
LAMBERTVILLE   MOSUNNY   77  43  29 SW8       30.01S
LANSING        PTSUNNY   76  45  33 SW12      29.97S
LAPEER         CLOUDY    75  38  25 SW9       29.98S
MASON          CLOUDY    76  43  31 SW6G16    29.98S
MONROE         MOSUNNY   75  45  33 SW12      29.99S
MT. CLEMENS    CLOUDY    71  47  43 S13       29.97S
PONTIAC        CLOUDY    75  42  30 S9        29.98S
PORT HOPE        N/A     77  40  26 SW5       29.92F
PORT HURON     PTSUNNY   73  43  33 S14       29.99S
TRI CITIES     CLOUDY    78  45  30 SW13      29.94S
MIDLAND        PTSUNNY   78  43  28 SW13      29.92S
TROY           PTSUNNY   78  38  23 SW10      30.01R
SAGINAW HB     CLOUDY    77  39  25 SW14      29.94S
$$
MIZ043>046-050>051-056>058-064>065-071>073-077>080-040000-
SOUTHWEST LOWER MICHIGAN

CITY           SKY/WX    TMP DP  RH WIND       PRES   REMARKS
BATTLE CREEK   PTSUNNY   76  47  35 SW13      29.98S
BENTON HARBOR  PTSUNNY   75  46  35 SW6       29.94S
BIG RAPIDS     PTSUNNY   75  41  30 SW13G23   29.93S
COLDWATER        N/A     74  43  32 SW8       29.99S
FREMONT        FAIR      74  38  26 SW10      29.93S
HOLLAND        MOSUNNY   76  46  34 SW13      29.95S
GRAND RAPIDS   PTSUNNY   76  45  33 SW10      29.95S
IONIA          FAIR      77  42  29 SW14      29.95S
KALAMAZOO      CLOUDY    76  45  33 S10       29.97S
LUDINGTON      CLOUDY    73  44  34 S21G28    29.90S
MARSHALL       CLOUDY    75  46  35 MISG      29.98S
MOUNT PLEASANT CLOUDY    77  42  29 SW14      29.93S
MUSKEGON       PTSUNNY   73  42  32 SW14      29.94S
SOUTH HAVEN    CLOUDY    78  37  22 SW5       29.94S
$$
MIZ016>042-040000-
NORTHERN LOWER MICHIGAN

CITY           SKY/WX    TMP DP  RH WIND       PRES   REMARKS
ALPENA         MOSUNNY   79  44  28 SW10      29.88S
BEAVER ISLAND  PTSUNNY   65  42  43 SW17G28   29.85F
BELLAIRE       PTSUNNY   78  43  28 SW12G17   29.86S
CADILLAC       PTSUNNY   73  46  39 SW17G25   29.92S
CHARLEVOIX     SUNNY     75  46  35 SW9       29.88S
FRANKFORT      MOSUNNY   73  40  30 S8G18     29.87F
GAYLORD        MOSUNNY   75  43  31 SW16G26   29.89S
GRAYLING       MOSUNNY   75  43  31 S12G21    29.91S
HARBOR SPRINGS MOSUNNY   71  45  38 W5        29.86S
HOUGHTON LAKE  PTSUNNY   73  44  35 SW14      29.92S
MANISTEE       PTSUNNY   73  46  38 S13G23    29.89F
OSCODA         PTSUNNY   77  43  29 S12G17    29.90S
PELLSTON       MOSUNNY   77  44  30 SW10      29.86S
ROGERS CITY    CLOUDY    69  50  49 E3        29.89S HAZE
TRAVERSE CITY  PTSUNNY   77  46  33 SW10G23   29.86S
$$
MIZ007>008-015-040000-
EASTERN UPPER MICHIGAN

CITY           SKY/WX    TMP DP  RH WIND       PRES   REMARKS
KINROSS        SUNNY     72  43  35 SW10G18   29.85S
MACKINAC ISLAN MOSUNNY   68  43  40 W10G16    29.85S
NEWBERRY       MOSUNNY   64  43  46 SW17G29   29.84R
S. S. MARIE    SUNNY     73  43  33 SW18G28   29.83S
MUNISING         N/A     65  54  67 SE10G16   29.78R
$$
MIZ004>006-011>014-085-040000-
CENTRAL UPPER MICHIGAN

CITY           SKY/WX    TMP DP  RH WIND       PRES   REMARKS
MANISTIQUE     MOSUNNY   48  38  69 S9        29.83S
ESCANABA       PTSUNNY   63  45  51 S16G22    29.77F
MENOMINEE      SUNNY     77  54  44 SW17G24   29.77S
SAWYER-GWINN   CLOUDY    59  52  77 NE16      29.81R
$$
MIZ001>003-009>011-084-040000-
WESTERN UPPER MICHIGAN

CITY           SKY/WX    TMP DP  RH WIND       PRES   REMARKS
IRON MOUNTAIN  PTSUNNY   79  47  32 SW7       29.74R
HOUGHTON       PTSUNNY   71  49  45 NW7       29.77R
COPPER HARBOR    N/A     66  49  54 CALM      29.76R
IRONWOOD       CLOUDY    72  45  37 NW9       29.77R
$$

ABBREVIATIONS USED IN REMARKS
   TC - TEMPERATURE IN CELSIUS
  WCI - WIND CHILL INDEX
   HX - HEAT INDEX
  VSB - VISIBILITY



USA.gov is the U.S. government's official web portal to all federal, state and local government web resources and services.